FW1340 Weather Reports


Display with metric or nautical units.
time (UTC)temp
F
wind
direction
speed
MPH
gust
MPH
rain 1hr
in
rain 24hr
in
rain mn
in
humidity
%
barometer
mb
20260906083020 57 88 0.0 0.0 0.00 0.00 0.00 75 1013.9
20260906081539 57 74 0.0 0.0 0.00 0.00 0.00 74 1013.9
20260906080018 57 74 0.0 0.0 0.00 0.00 0.00 73 1013.9
20260906074516 57 72 0.0 0.0 0.00 0.00 0.00 73 1013.9
20260906073012 59 45 0.0 0.0 0.00 0.00 0.00 70 1013.8
20260906071509 59 45 0.0 0.0 0.00 0.00 0.00 68 1013.8
20260906070005 60 306 0.0 0.0 0.00 0.00 0.00 68 1013.7
20260906064505 61 308 0.0 0.0 0.00 0.00 0.00 69 1013.7
20260906063007 62 260 0.0 0.0 0.00 0.00 0.00 65 1013.7
20260906061507 63 260 0.0 0.0 0.00 0.00 0.00 66 1013.6
20260906060004 63 261 0.0 0.0 0.00 0.00 0.00 65 1013.6
20260906054503 64 257 0.0 0.0 0.00 0.00 0.00 64 1013.6
20260906053002 64 269 0.0 0.0 0.00 0.00 0.00 64 1013.6
20260906051504 65 257 0.0 0.0 0.00 0.00 0.00 64 1013.8
20260906050002 66 257 0.0 0.0 0.00 0.00 0.00 61 1013.7
20260906044501 68 255 0.0 0.0 0.00 0.00 0.00 59 1013.7
20260906043102 68 268 0.0 0.0 0.00 0.00 0.00 57 1013.5
20260906041601 68 263 0.0 0.0 0.00 0.00 0.00 57 1013.3
20260906040132 70 278 0.0 0.0 0.00 0.00 0.00 57 1013.3
20260906034605 71 271 0.0 0.0 0.00 0.00 0.00 55 1013.2
20260906033059 71 267 0.0 0.0 0.00 0.00 0.00 55 1013.0
20260906031603 72 267 0.0 0.0 0.00 0.00 0.00 54 1012.8
20260906030058 73 259 0.0 0.0 0.00 0.00 0.00 51 1012.8
20260906024601 75 267 0.0 0.0 0.00 0.00 0.00 49 1012.6
20260906023057 76 227 0.0 0.0 0.00 0.00 0.00 49 1012.7
20260906021604 77 263 0.0 0.0 0.00 0.00 0.00 47 1012.7
20260906020059 78 277 0.0 0.0 0.00 0.00 0.00 43 1012.7
20260906014559 79 254 0.0 0.0 0.00 0.00 0.00 37 1012.7
20260906013055 80 286 0.0 0.0 0.00 0.00 0.00 36 1012.6
20260906011557 81 261 0.0 0.0 0.00 0.00 0.00 36 1012.7
20260906010104 83 252 0.0 0.0 0.00 0.00 0.00 36 1012.6
20260906004555 83 273 0.0 0.0 0.00 0.00 0.00 37 1012.6
20260906003052 83 298 0.0 0.0 0.00 0.00 0.00 35 1012.6
20260906001604 83 284 0.0 0.0 0.00 0.00 0.00 35 1012.5
20260906000051 83 274 0.0 0.0 0.00 0.00 0.00 35 1012.5
20260905234549 82 236 0.0 0.0 0.00 0.00 0.00 37 1012.6
20260905233052 82 298 0.0 0.0 0.00 0.00 0.00 38 1012.6
20260905231547 82 250 0.0 0.0 0.00 0.00 0.00 38 1012.7
20260905230051 83 253 0.0 0.0 0.00 0.00 0.00 39 1012.9
20260905224554 83 277 0.0 0.0 0.00 0.00 0.00 38 1013.1
20260905223046 83 245 0.0 0.0 0.00 0.00 0.00 39 1013.0
20260905221546 82 232 0.0 0.0 0.00 0.00 0.00 41 1013.2
20260905220036 81 312 0.0 0.0 0.00 0.00 0.00 42 1013.4
20260905214535 82 312 0.0 0.0 0.00 0.00 0.00 40 1013.5
20260905213035 81 355 0.0 0.0 0.00 0.00 0.00 40 1013.6
20260905211542 81 323 0.0 0.0 0.00 0.00 0.00 40 1013.7
20260905210028 81 285 0.0 0.0 0.00 0.00 0.00 40 1013.7
20260905204528 80 283 0.0 0.0 0.00 0.00 0.00 42 1013.9
20260905203027 79 313 0.0 0.0 0.00 0.00 0.00 45 1014.0
20260905201520 79 242 0.0 0.0 0.00 0.00 0.00 46 1014.1
20260905200020 79 250 0.0 0.0 0.00 0.00 0.00 47 1014.2
20260905194513 77 242 0.0 0.0 0.00 0.00 0.00 50 1014.4
20260905193008 76 328 0.0 0.0 0.00 0.00 0.00 54 1014.5
20260905191504 75 313 0.0 0.0 0.00 0.00 0.00 55 1014.7
20260905190003 75 261 0.0 0.0 0.00 0.00 0.00 56 1014.9
20260905184608 74 244 0.0 0.0 0.00 0.00 0.00 57 1014.9
20260905183055 73 222 0.0 0.0 0.00 0.00 0.00 58 1015.0
20260905181550 72 325 0.0 0.0 0.00 0.00 0.00 60 1015.0
20260905180047 71 225 0.0 0.0 0.00 0.00 0.00 62 1015.0
20260905174542 70 274 0.0 0.0 0.00 0.00 0.00 63 1014.9
20260905173039 70 227 0.0 0.0 0.00 0.00 0.00 65 1014.9
20260905171551 69 242 0.0 0.0 0.00 0.00 0.00 66 1015.0
20260905170032 67 269 0.0 0.0 0.00 0.00 0.00 69 1014.9
20260905164531 67 267 0.0 0.0 0.00 0.00 0.00 70 1014.9
20260905163026 65 331 0.0 0.0 0.00 0.00 0.00 72 1014.9
20260905161533 65 257 0.0 0.0 0.00 0.00 0.00 74 1014.8
20260905160028 64 259 0.0 0.0 0.00 0.00 0.00 75 1014.9
20260905154525 62 256 0.0 0.0 0.00 0.00 0.00 78 1014.9
20260905153011 60 360 0.0 0.0 0.00 0.00 0.00 82 1014.9
20260905151505 58 69 0.0 0.0 0.00 0.00 0.00 85 1014.9
20260905150002 55 92 0.0 0.0 0.00 0.00 0.00 90 1014.9
20260905144559 52 80 0.0 0.0 0.00 0.00 0.00 92 1014.8
20260905143054 51 76 0.0 0.0 0.00 0.00 0.00 91 1014.7
20260905141550 50 76 0.0 0.0 0.00 0.00 0.00 91 1014.6
20260905140051 50 76 0.0 0.0 0.00 0.00 0.00 90 1014.5
20260905134551 50 38 0.0 0.0 0.00 0.00 0.00 91 1014.4
20260905133046 50 80 0.0 0.0 0.00 0.00 0.00 91 1014.3
20260905131546 50 117 0.0 0.0 0.00 0.00 0.00 91 1014.3
20260905130044 50 117 0.0 0.0 0.00 0.00 0.00 90 1014.2
20260905124548 50 117 0.0 0.0 0.00 0.00 0.00 90 1014.1
20260905123041 50 117 0.0 0.0 0.00 0.00 0.00 90 1014.2
20260905121540 50 117 0.0 0.0 0.00 0.00 0.00 89 1014.2
20260905120039 50 89 0.0 0.0 0.00 0.00 0.00 89 1014.2
20260905114536 50 74 0.0 0.0 0.00 0.00 0.00 89 1014.2
20260905113036 51 74 0.0 0.0 0.00 0.00 0.00 89 1014.2
20260905111535 51 74 0.0 0.0 0.00 0.00 0.00 89 1014.3
20260905110034 50 344 0.0 0.0 0.00 0.00 0.00 89 1014.4
20260905104543 51 106 0.0 0.0 0.00 0.00 0.00 87 1014.4
20260905103033 51 103 0.0 0.0 0.00 0.00 0.00 85 1014.5
20260905101526 53 162 0.0 0.0 0.00 0.00 0.00 84 1014.4
20260905100023 53 162 0.0 0.0 0.00 0.00 0.00 86 1014.6
20260905094521 54 161 0.0 0.0 0.00 0.00 0.00 84 1014.4
20260905093018 54 186 0.0 0.0 0.00 0.00 0.00 84 1014.4
20260905091515 55 225 0.0 0.0 0.00 0.00 0.00 83 1014.4
20260905090018 55 225 0.0 0.0 0.00 0.00 0.00 83 1014.5
20260905084517 56 112 0.0 0.0 0.00 0.00 0.00 82 1014.6